FW2952 Weather Reports


time (UTC)temp
C
wind
direction
speed
KPH
gust
KPH
rain 1hr
cm
rain 24hr
cm
rain mn
cm
humidity
%
barometer
mb
20260510010322 3 18 4.8 12.9 0.00 0.00 0.00 78 1009.1
20260510004851 3 356 3.2 16.1 0.00 0.00 0.00 76 1008.9
20260510003328 4 276 6.4 11.3 0.00 0.00 0.00 73 1008.8
20260510001825 4 256 1.6 8.0 0.00 0.00 0.00 73 1008.4
20260510000345 4 147 1.6 11.3 0.00 0.00 0.00 71 1008.2
20260509234853 5 299 4.8 14.5 0.00 0.00 0.00 69 1008.2
20260509233348 5 222 3.2 11.3 0.00 0.00 0.00 67 1008.1
20260509231827 5 283 6.4 20.9 0.00 0.00 0.00 65 1007.7
20260509230324 5 288 4.8 14.5 0.00 0.00 0.00 63 1007.6
20260509224817 5 251 4.8 11.3 0.00 0.00 0.00 63 1007.5
20260509223313 5 240 3.2 11.3 0.00 0.00 0.00 66 1007.4
20260509221826 6 261 4.8 11.3 0.00 0.00 0.00 64 1007.2
20260509220324 6 281 4.8 12.9 0.00 0.00 0.00 62 1006.9
20260509214916 7 219 4.8 9.7 0.00 0.00 0.00 60 1006.8
20260509213329 7 245 4.8 9.7 0.00 0.00 0.00 60 1006.6
20260509211842 7 352 1.6 8.0 0.00 0.00 0.00 66 1006.4
20260509210316 6 335 3.2 9.7 0.00 0.00 0.00 66 1006.3
20260509204852 6 288 3.2 8.0 0.00 0.00 0.00 67 1006.1
20260509203327 5 253 1.6 9.7 0.00 0.00 0.00 70 1006.0
20260509201825 5 279 4.8 11.3 0.00 0.00 0.00 71 1006.0
20260509200341 6 5 3.2 11.3 0.00 0.00 0.00 69 1005.6
20260509194815 6 24 8.0 14.5 0.00 0.00 0.00 64 1005.5
20260509193330 7 352 4.8 11.3 0.00 0.00 0.00 61 1005.1
20260509191827 7 8 4.8 16.1 0.00 0.00 0.00 59 1004.8
20260509190346 7 305 9.7 20.9 0.00 0.00 0.00 58 1004.5
20260509184813 7 316 4.8 16.1 0.00 0.00 0.00 62 1004.3
20260509183314 7 336 4.8 14.5 0.00 0.00 0.00 63 1004.0
20260509181851 7 330 4.8 17.7 0.00 0.00 0.00 61 1003.7
20260509180313 7 8 6.4 17.7 0.00 0.00 0.00 64 1003.5
20260509174825 7 50 4.8 16.1 0.00 0.00 0.00 65 1003.0
20260509173321 6 348 6.4 14.5 0.00 0.00 0.00 68 1002.8
20260509171841 7 293 8.0 16.1 0.00 0.00 0.00 65 1002.4
20260509170335 7 260 3.2 16.1 0.00 0.00 0.00 64 1001.9
20260509164825 7 302 9.7 17.7 0.00 0.00 0.00 63 1001.7
20260509163319 7 9 8.0 16.1 0.00 0.00 0.00 61 1001.5
20260509161834 7 320 6.4 25.7 0.00 0.00 0.00 62 1001.2
20260509160313 7 336 4.8 22.5 0.00 0.00 0.00 62 1001.0
20260509154841 7 194 6.4 12.9 0.00 0.00 0.00 60 1000.8
20260509153320 7 330 8.0 17.7 0.00 0.00 0.00 56 1000.4
20260509151816 7 224 6.4 20.9 0.00 0.00 0.00 54 1000.0
20260509150336 7 147 9.7 20.9 0.00 0.00 0.00 53 999.8
20260509144844 7 231 4.8 11.3 0.00 0.00 0.00 55 999.6
20260509143321 6 243 9.7 17.7 0.00 0.00 0.00 58 999.4
20260509141825 5 229 1.6 11.3 0.00 0.00 0.00 62 999.2
20260509140322 5 262 4.8 12.9 0.00 0.00 0.00 61 999.1
20260509134838 5 303 4.8 14.5 0.00 0.00 0.00 64 998.9
20260509133315 5 344 4.8 12.9 0.00 0.00 0.00 65 998.8
20260509131834 5 274 6.4 12.9 0.00 0.00 0.00 67 998.7
20260509130313 5 262 4.8 9.7 0.00 0.00 0.00 68 998.5
20260509124821 5 243 3.2 12.9 0.00 0.00 0.00 69 998.3
20260509123321 6 215 3.2 11.3 0.00 0.00 0.00 68 998.1
20260509121818 6 249 1.6 11.3 0.00 0.00 0.00 66 998.0
20260509120320 6 274 1.6 11.3 0.00 0.00 0.00 65 998.0
20260509114851 5 328 3.2 6.4 0.00 0.00 0.00 66 998.0
20260509113327 6 259 3.2 8.0 0.00 0.00 0.00 64 998.0
20260509111831 5 245 1.6 8.0 0.00 0.00 0.00 64 997.7
20260509110326 5 262 1.6 8.0 0.00 0.00 0.00 63 997.6
20260509104817 5 269 1.6 8.0 0.00 0.00 0.00 62 997.5
20260509103337 5 291 1.6 8.0 0.00 0.00 0.00 63 997.4
20260509101817 6 259 1.6 6.4 0.00 0.00 0.00 63 997.3
20260509100315 6 262 0.0 4.8 0.00 0.00 0.00 62 997.3
20260509094813 6 245 1.6 6.4 0.00 0.00 0.00 60 997.3
20260509093332 7 256 1.6 3.2 0.00 0.00 0.00 59 997.1
20260509091850 7 250 0.0 4.8 0.00 0.00 0.00 57 997.2
20260509090330 8 223 1.6 3.2 0.00 0.00 0.00 57 997.4
20260509084819 8 240 0.0 8.0 0.00 0.00 0.00 58 997.4
20260509083320 8 322 1.6 4.8 0.00 0.00 0.00 55 997.1
20260509081818 8 328 0.0 4.8 0.00 0.00 0.00 55 997.2
20260509080317 8 270 0.0 3.2 0.00 0.00 0.00 56 997.1
20260509074829 7 239 0.0 1.6 0.00 0.00 0.00 57 997.2
20260509073347 7 315 0.0 1.6 0.00 0.00 0.00 57 997.5
20260509071828 8 348 0.0 0.0 0.00 0.00 0.00 56 997.6
20260509070325 8 348 0.0 3.2 0.00 0.00 0.00 55 997.7
20260509064843 8 305 1.6 3.2 0.00 0.00 0.00 55 997.9
20260509063320 7 148 3.2 8.0 0.00 0.00 0.00 55 997.8
20260509061822 7 118 1.6 3.2 0.00 0.00 0.00 55 997.9
20260509060319 7 138 1.6 3.2 0.00 0.00 0.00 54 998.1
20260509054815 8 118 1.6 4.8 0.00 0.00 0.00 54 998.1
20260509053332 8 146 1.6 9.7 0.00 0.00 0.00 53 998.1
20260509051853 8 123 4.8 8.0 0.00 0.00 0.00 53 998.3
20260509050314 8 189 1.6 9.7 0.00 0.00 0.00 53 998.6
20260509044823 7 132 3.2 6.4 0.00 0.00 0.00 57 998.8
20260509043322 7 169 1.6 8.0 0.00 0.00 0.00 57 998.9
20260509041841 8 116 1.6 4.8 0.00 0.00 0.00 57 999.4
20260509040323 8 136 1.6 4.8 0.00 0.00 0.00 58 999.5
20260509034818 8 110 1.6 3.2 0.00 0.00 0.00 57 999.6
20260509033340 8 75 0.0 4.8 0.00 0.00 0.00 58 999.9
20260509031846 8 84 0.0 3.2 0.00 0.00 0.00 60 1000.1
20260509030325 9 160 0.0 0.0 0.00 0.00 0.00 55 1000.1
20260509024822 9 160 0.0 0.0 0.00 0.00 0.00 52 1000.4
20260509023321 9 160 0.0 1.6 0.00 0.00 0.00 51 1000.6
20260509021841 10 124 0.0 1.6 0.00 0.00 0.00 52 1001.0
20260509020317 10 156 0.0 0.0 0.00 0.00 0.00 48 1000.9
20260509014834 10 155 0.0 0.0 0.00 0.00 0.00 48 1000.9
20260509013317 10 155 0.0 0.0 0.00 0.00 0.00 45 1000.8
20260509011816 10 155 0.0 0.0 0.00 0.00 0.00 42 1000.8